Showing default

MIDAS 3, 163

Orbit data source: Space-Track

MIDAS 3, 163 is a payload satellite owned by USAF SSD (US) in LEO that was launched on Wed, 12 Jul 1961 UTC via an ATLAS AGENA B launch vehicle from the Air Force Western Test Range (AFWTR). Payload-class satellites include a variety of spacecraft equipped with specific instruments for various scientific and technological missions. These include communications satellites like Starlink; space stations such as the ISS; scientific satellites like the Hubble; Earth observation satellites from companies like Planet Labs, Umbra, and HawkEye 360; GPS; miniature CubeSats for education and research; and military/defense satellites.

Loading next visibility...
Identifier
163, 1961-018A
Orbit
LEO
Country
Flag of USUS
Related business
Manufacturer
LMSC
Mission
Spacecraft
Bus & Motor
MIDAS, Unknown motor
Mass
~1,540 kg wet, 840 kg dry
Launch date (UTC)
1961-07-12 (65 years ago)
Launch vehicle
ATLAS AGENA B
Launch site
Air Force Western Test Range (AFWTR)
Object type
Payload
Rocket body
Debris
Shape & HBR
CONE, 1.0 m
Radar Cross Section
Large (>1 m²)

Expand to show TLE details & history
Last TLE update: 1 day ago

TLE from 1 day ago
0 MIDAS 3
1 00163U 61018A   26205.99760449  .00000037  00000-0  12584-1 0  9990
2 00163  91.1168 206.8668 0102730 113.9870 247.1797  8.91839306117380
Epoch: 2026-07-24T23:56Z
TLE epoch observation values (Epoch: 2026-07-24T23:56:33.027Z)
Latitude
-0.00003°
Longitude
-94.98702°
Altitude
3,486.363 km
Speed
6.344 km/s
True Right ascension
13h 47m 28s
True Declination
0° 00' 00"
Sunlit
Object was in daylight at epoch
Visualization orbit readout
Latitude
Unknown
Longitude
Unknown
Altitude
Unknown
Speed
Unknown
Apparent Right ascension
Unknown
Apparent Declination
Unknown
Sunlit
N/A
Visualization observer readout
Local Sidereal Time
16:14:48
Azimuth
Unknown
Elevation
Unknown
Doppler factor
Unknown
Orbital elements
Apogee altitude
3,542.756 km
Perigee altitude
3,340.994 km
Semi-major axis
9,820.012 km
Eccentricity
0.01027
Inclination
91.1168°
RAAN
206.8668°
Arg. of periapsis
113.987°
True anomaly
246.10009°
Mean anomaly
247.1797°
Eccentric anomaly
246.63935°
Mean motion
2.23036 °/min
Orbital period
161.41 mins
BSTAR
0.012584
Loading maneuver chart data...
Computing Atmospheric mass density...
Loading historical data...
Loading historical data...
Loading historical data...
Loading historical data...
Loading historical data...
Loading historical data...
Loading historical data...
Other satellites on launch #18 in the year 1961 (1961-07-12 UTC)

Documentation

Showing up to 5 results
|